Time,TemperatureF,DewpointF,PressureIn,WindDirection,WindDirectionDegrees,WindSpeedMPH,WindSpeedGustMPH,Humidity,HourlyPrecipIn,Conditions,Clouds,dailyrainin,SoftwareType,DateUTC
2013-01-14 00:08:00,-999.0,-99.9,29.78,North,-999,-999.0,-999.0,-999,0.00,,,0.00,weatherlink.com 1.10,2013-01-14 00:08:00,
2013-01-14 00:23:00,-999.0,-99.9,29.77,North,-999,-999.0,-999.0,-999,0.00,,,0.00,weatherlink.com 1.10,2013-01-14 00:23:00,
2013-01-14 00:38:00,-999.0,-99.9,29.77,North,-999,-999.0,-999.0,-999,0.00,,,0.00,weatherlink.com 1.10,2013-01-14 00:38:00,
2013-01-14 00:53:00,-999.0,-99.9,29.76,North,-999,-999.0,-999.0,-999,0.00,,,0.00,weatherlink.com 1.10,2013-01-14 00:53:00,
2013-01-14 01:08:00,-999.0,-99.9,29.75,North,-999,-999.0,-999.0,-999,0.00,,,0.00,weatherlink.com 1.10,2013-01-14 01:08:00,
2013-01-14 01:23:00,-999.0,-99.9,29.75,North,-999,-999.0,-999.0,-999,0.00,,,0.00,weatherlink.com 1.10,2013-01-14 01:23:00,
2013-01-14 01:38:00,-999.0,-99.9,29.75,North,-999,-999.0,-999.0,-999,0.00,,,0.00,weatherlink.com 1.10,2013-01-14 01:38:00,
2013-01-14 01:53:00,-999.0,-99.9,29.74,North,-999,-999.0,-999.0,-999,0.00,,,0.00,weatherlink.com 1.10,2013-01-14 01:53:00,
2013-01-14 02:08:00,-999.0,-99.9,29.73,North,-999,-999.0,-999.0,-999,0.00,,,0.00,weatherlink.com 1.10,2013-01-14 02:08:00,
2013-01-14 02:23:00,-999.0,-99.9,29.72,North,-999,-999.0,-999.0,-999,0.00,,,0.00,weatherlink.com 1.10,2013-01-14 02:23:00,
2013-01-14 02:38:00,-999.0,-99.9,29.72,North,-999,-999.0,-999.0,-999,0.00,,,0.00,weatherlink.com 1.10,2013-01-14 02:38:00,
2013-01-14 02:53:00,-999.0,-99.9,29.71,North,-999,-999.0,-999.0,-999,0.00,,,0.00,weatherlink.com 1.10,2013-01-14 02:53:00,
2013-01-14 03:08:00,-999.0,-99.9,29.71,North,-999,-999.0,-999.0,-999,0.00,,,0.00,weatherlink.com 1.10,2013-01-14 03:08:00,
2013-01-14 03:23:00,-999.0,-99.9,29.70,North,-999,-999.0,-999.0,-999,0.00,,,0.00,weatherlink.com 1.10,2013-01-14 03:23:00,
2013-01-14 03:39:00,-999.0,-99.9,29.69,North,-999,-999.0,-999.0,-999,0.00,,,0.00,weatherlink.com 1.10,2013-01-14 03:39:00,
2013-01-14 03:54:00,-999.0,-99.9,29.68,North,-999,-999.0,-999.0,-999,0.00,,,0.00,weatherlink.com 1.10,2013-01-14 03:54:00,
2013-01-14 04:09:00,-999.0,-99.9,29.68,North,-999,-999.0,-999.0,-999,0.00,,,0.00,weatherlink.com 1.10,2013-01-14 04:09:00,
2013-01-14 04:24:00,-999.0,-99.9,29.67,North,-999,-999.0,-999.0,-999,0.00,,,0.00,weatherlink.com 1.10,2013-01-14 04:24:00,
2013-01-14 04:39:00,-999.0,-99.9,29.66,North,-999,-999.0,-999.0,-999,0.00,,,0.00,weatherlink.com 1.10,2013-01-14 04:39:00,
2013-01-14 04:54:00,-999.0,-99.9,29.66,North,-999,-999.0,-999.0,-999,0.00,,,0.00,weatherlink.com 1.10,2013-01-14 04:54:00,
2013-01-14 05:09:00,-999.0,-99.9,29.65,North,-999,-999.0,-999.0,-999,0.00,,,0.00,weatherlink.com 1.10,2013-01-14 05:09:00,
2013-01-14 05:24:00,-999.0,-99.9,29.64,North,-999,-999.0,-999.0,-999,0.00,,,0.00,weatherlink.com 1.10,2013-01-14 05:24:00,
2013-01-14 05:39:00,-999.0,-99.9,29.64,North,-999,-999.0,-999.0,-999,0.00,,,0.00,weatherlink.com 1.10,2013-01-14 05:39:00,
2013-01-14 05:54:00,-999.0,-99.9,29.63,North,-999,-999.0,-999.0,-999,0.00,,,0.00,weatherlink.com 1.10,2013-01-14 05:54:00,
2013-01-14 06:09:00,-999.0,-99.9,29.63,North,-999,-999.0,-999.0,-999,0.00,,,0.00,weatherlink.com 1.10,2013-01-14 06:09:00,
2013-01-14 06:24:00,-999.0,-99.9,29.63,North,-999,-999.0,-999.0,-999,0.00,,,0.00,weatherlink.com 1.10,2013-01-14 06:24:00,
2013-01-14 06:39:00,-999.0,-99.9,29.64,North,-999,-999.0,-999.0,-999,0.00,,,0.00,weatherlink.com 1.10,2013-01-14 06:39:00,
2013-01-14 06:55:00,-999.0,-99.9,29.64,North,-999,-999.0,-999.0,-999,0.00,,,0.00,weatherlink.com 1.10,2013-01-14 06:55:00,
2013-01-14 07:10:00,-999.0,-99.9,29.64,North,-999,-999.0,-999.0,-999,0.00,,,0.00,weatherlink.com 1.10,2013-01-14 07:10:00,
2013-01-14 07:25:00,-999.0,-99.9,29.64,North,-999,-999.0,-999.0,-999,0.00,,,0.00,weatherlink.com 1.10,2013-01-14 07:25:00,
2013-01-14 07:40:00,-999.0,-99.9,29.64,North,-999,-999.0,-999.0,-999,0.00,,,0.00,weatherlink.com 1.10,2013-01-14 07:40:00,
2013-01-14 07:55:00,-999.0,-99.9,29.64,North,-999,-999.0,-999.0,-999,0.00,,,0.00,weatherlink.com 1.10,2013-01-14 07:55:00,
2013-01-14 08:10:00,-999.0,-99.9,29.64,North,-999,-999.0,-999.0,-999,0.00,,,0.00,weatherlink.com 1.10,2013-01-14 08:10:00,
2013-01-14 08:25:00,-999.0,-99.9,29.64,North,-999,-999.0,-999.0,-999,0.00,,,0.00,weatherlink.com 1.10,2013-01-14 08:25:00,
2013-01-14 08:40:00,-999.0,-99.9,29.64,North,-999,-999.0,-999.0,-999,0.00,,,0.00,weatherlink.com 1.10,2013-01-14 08:40:00,
2013-01-14 08:55:00,-999.0,-99.9,29.64,North,-999,-999.0,-999.0,-999,0.00,,,0.00,weatherlink.com 1.10,2013-01-14 08:55:00,
2013-01-14 09:04:00,-999.0,-99.9,0.00,North,-999,-999.0,-999.0,-999,0.00,,,0.00,weatherlink.com 1.10,2013-01-14 09:04:00,
2013-01-14 09:18:00,-999.0,-99.9,29.64,North,-999,-999.0,-999.0,-999,0.00,,,0.00,weatherlink.com 1.10,2013-01-14 09:18:00,
2013-01-14 09:33:00,-999.0,-99.9,29.63,North,-999,-999.0,-999.0,-999,0.00,,,0.00,weatherlink.com 1.10,2013-01-14 09:33:00,
2013-01-14 09:48:00,40.2,38.0,29.63,NNW,347,5.0,9.0,93,0.00,,,0.00,weatherlink.com 1.10,2013-01-14 09:48:00,
2013-01-14 10:03:00,40.1,38.0,29.63,NNW,346,4.0,11.0,93,0.00,,,0.00,weatherlink.com 1.10,2013-01-14 10:03:00,
2013-01-14 10:18:00,40.3,39.0,29.63,North,4,7.0,16.0,93,0.00,,,0.00,weatherlink.com 1.10,2013-01-14 10:18:00,
2013-01-14 10:33:00,39.9,38.0,29.63,NNE,19,6.0,13.0,93,0.00,,,0.00,weatherlink.com 1.10,2013-01-14 10:33:00,
2013-01-14 10:48:00,40.4,38.0,29.62,NNW,342,9.0,14.0,92,0.00,,,0.00,weatherlink.com 1.10,2013-01-14 10:48:00,
2013-01-14 11:03:00,40.6,38.0,29.62,North,11,6.0,16.0,91,0.00,,,0.00,weatherlink.com 1.10,2013-01-14 11:03:00,
2013-01-14 11:18:00,40.6,38.0,29.62,North,11,9.0,12.0,91,0.00,,,0.00,weatherlink.com 1.10,2013-01-14 11:18:00,
2013-01-14 11:33:00,40.6,38.0,29.61,North,359,10.0,18.0,90,0.00,,,0.00,weatherlink.com 1.10,2013-01-14 11:33:00,
2013-01-14 11:48:00,40.8,38.0,29.61,NW,308,12.0,16.0,90,0.00,,,0.00,weatherlink.com 1.10,2013-01-14 11:48:00,
2013-01-14 12:03:00,40.8,38.0,29.60,NNW,348,11.0,16.0,91,0.00,,,0.00,weatherlink.com 1.10,2013-01-14 12:03:00,
2013-01-14 12:18:00,40.9,38.0,29.60,NNW,345,4.0,16.0,90,0.00,,,0.00,weatherlink.com 1.10,2013-01-14 12:18:00,
2013-01-14 12:34:00,41.3,38.0,29.59,NNW,347,7.0,15.0,89,0.00,,,0.00,weatherlink.com 1.10,2013-01-14 12:34:00,
2013-01-14 12:49:00,41.2,38.0,29.59,NNE,15,9.0,16.0,88,0.00,,,0.00,weatherlink.com 1.10,2013-01-14 12:49:00,
2013-01-14 13:04:00,41.5,38.0,29.58,North,4,8.0,18.0,87,0.00,,,0.00,weatherlink.com 1.10,2013-01-14 13:04:00,
2013-01-14 13:19:00,41.7,38.0,29.58,North,356,7.0,15.0,86,0.00,,,0.00,weatherlink.com 1.10,2013-01-14 13:19:00,
2013-01-14 13:34:00,41.7,38.0,29.57,NNE,18,12.0,15.0,85,0.00,,,0.00,weatherlink.com 1.10,2013-01-14 13:34:00,
2013-01-14 13:49:00,41.5,37.0,29.57,North,351,11.0,21.0,84,0.00,,,0.00,weatherlink.com 1.10,2013-01-14 13:49:00,
2013-01-14 14:04:00,41.9,37.0,29.57,NNE,15,11.0,20.0,81,0.00,,,0.00,weatherlink.com 1.10,2013-01-14 14:04:00,
2013-01-14 14:19:00,41.8,36.0,29.57,North,8,8.0,17.0,81,0.00,,,0.00,weatherlink.com 1.10,2013-01-14 14:19:00,
2013-01-14 14:34:00,41.9,37.0,29.57,NNW,342,9.0,15.0,82,0.00,,,0.00,weatherlink.com 1.10,2013-01-14 14:34:00,
2013-01-14 14:49:00,41.7,37.0,29.56,NNW,328,7.0,14.0,83,0.00,,,0.00,weatherlink.com 1.10,2013-01-14 14:49:00,
2013-01-14 15:04:00,41.0,37.0,29.57,NNE,12,8.0,22.0,85,0.00,,,0.00,weatherlink.com 1.10,2013-01-14 15:04:00,
2013-01-14 15:19:00,39.9,36.0,29.58,NNE,18,7.0,12.0,87,0.00,,,0.00,weatherlink.com 1.10,2013-01-14 15:19:00,
2013-01-14 15:34:00,39.9,36.0,29.58,NNE,18,5.0,13.0,87,0.00,,,0.00,weatherlink.com 1.10,2013-01-14 15:34:00,
2013-01-14 15:49:00,40.2,36.0,29.58,North,4,7.0,15.0,84,0.00,,,0.00,weatherlink.com 1.10,2013-01-14 15:49:00,
2013-01-14 16:04:00,40.4,35.0,29.57,North,5,8.0,17.0,82,0.00,,,0.00,weatherlink.com 1.10,2013-01-14 16:04:00,
2013-01-14 16:19:00,40.5,34.0,29.58,North,359,16.0,19.0,79,0.00,,,0.00,weatherlink.com 1.10,2013-01-14 16:19:00,
2013-01-14 16:34:00,39.0,35.0,29.58,North,356,21.0,22.0,84,0.00,,,0.00,weatherlink.com 1.10,2013-01-14 16:34:00,
2013-01-14 16:49:00,37.9,34.0,29.58,North,353,4.0,13.0,86,0.00,,,0.00,weatherlink.com 1.10,2013-01-14 16:49:00,
2013-01-14 17:04:00,37.9,34.0,29.58,NNW,331,6.0,12.0,85,0.00,,,0.00,weatherlink.com 1.10,2013-01-14 17:04:00,
2013-01-14 17:19:00,37.5,34.0,29.58,NNW,338,8.0,13.0,87,0.00,,,0.00,weatherlink.com 1.10,2013-01-14 17:19:00,
2013-01-14 17:34:00,36.9,34.0,29.59,North,353,7.0,10.0,88,0.00,,,0.00,weatherlink.com 1.10,2013-01-14 17:34:00,
2013-01-14 17:49:00,37.2,34.0,29.58,North,354,4.0,14.0,88,0.00,,,0.00,weatherlink.com 1.10,2013-01-14 17:49:00,
2013-01-14 18:04:00,36.9,34.0,29.58,NNW,333,6.0,11.0,89,0.00,,,0.00,weatherlink.com 1.10,2013-01-14 18:04:00,
2013-01-14 18:19:00,36.7,34.0,29.59,North,360,5.0,12.0,90,0.00,,,0.00,weatherlink.com 1.10,2013-01-14 18:19:00,
2013-01-14 18:34:00,36.4,34.0,29.59,NNW,335,11.0,12.0,90,0.00,,,0.00,weatherlink.com 1.10,2013-01-14 18:34:00,
2013-01-14 18:49:00,36.2,34.0,29.59,NW,316,5.0,9.0,90,0.00,,,0.00,weatherlink.com 1.10,2013-01-14 18:49:00,
2013-01-14 19:04:00,36.3,34.0,29.58,North,3,6.0,14.0,90,0.00,,,0.00,weatherlink.com 1.10,2013-01-14 19:04:00,
2013-01-14 19:19:00,36.3,34.0,29.59,North,358,6.0,14.0,90,0.00,,,0.00,weatherlink.com 1.10,2013-01-14 19:19:00,
2013-01-14 19:34:00,36.2,34.0,29.58,NNW,343,6.0,12.0,90,0.00,,,0.00,weatherlink.com 1.10,2013-01-14 19:34:00,
2013-01-14 19:49:00,36.3,34.0,29.58,NW,314,7.0,11.0,90,0.00,,,0.00,weatherlink.com 1.10,2013-01-14 19:49:00,
2013-01-14 20:04:00,36.2,33.0,29.57,NNW,347,8.0,16.0,89,0.00,,,0.00,weatherlink.com 1.10,2013-01-14 20:04:00,
2013-01-14 20:19:00,36.2,34.0,29.58,NNW,341,11.0,18.0,90,0.00,,,0.00,weatherlink.com 1.10,2013-01-14 20:19:00,
2013-01-14 20:34:00,36.3,34.0,29.58,NNW,335,7.0,14.0,90,0.00,,,0.00,weatherlink.com 1.10,2013-01-14 20:34:00,
2013-01-14 20:49:00,36.0,34.0,29.58,NNE,13,6.0,14.0,91,0.00,,,0.00,weatherlink.com 1.10,2013-01-14 20:49:00,
2013-01-14 21:05:00,35.9,34.0,29.58,NNW,328,10.0,14.0,91,0.00,,,0.00,weatherlink.com 1.10,2013-01-14 21:05:00,
2013-01-14 21:20:00,35.8,34.0,29.57,WNW,302,11.0,15.0,91,0.00,,,0.00,weatherlink.com 1.10,2013-01-14 21:20:00,
2013-01-14 21:35:00,35.8,34.0,29.58,NNW,343,8.0,15.0,91,0.00,,,0.00,weatherlink.com 1.10,2013-01-14 21:35:00,
2013-01-14 21:50:00,36.0,34.0,29.58,North,350,4.0,14.0,91,0.00,,,0.00,weatherlink.com 1.10,2013-01-14 21:50:00,
2013-01-14 22:05:00,35.8,34.0,29.58,NNW,347,5.0,10.0,91,0.00,,,0.00,weatherlink.com 1.10,2013-01-14 22:05:00,
2013-01-14 22:20:00,35.6,33.0,29.59,NW,318,3.0,11.0,91,0.00,,,0.00,weatherlink.com 1.10,2013-01-14 22:20:00,
2013-01-14 22:35:00,35.4,33.0,29.59,North,356,6.0,11.0,92,0.00,,,0.00,weatherlink.com 1.10,2013-01-14 22:35:00,
2013-01-14 22:50:00,35.1,33.0,29.59,NNW,344,5.0,14.0,92,0.00,,,0.00,weatherlink.com 1.10,2013-01-14 22:50:00,
2013-01-14 23:05:00,34.9,33.0,29.60,NNW,341,2.0,12.0,93,0.00,,,0.00,weatherlink.com 1.10,2013-01-14 23:05:00,
2013-01-14 23:20:00,34.7,33.0,29.60,NNW,347,7.0,12.0,93,0.00,,,0.00,weatherlink.com 1.10,2013-01-14 23:20:00,
2013-01-14 23:35:00,34.8,33.0,29.60,NNW,327,7.0,9.0,93,0.00,,,0.00,weatherlink.com 1.10,2013-01-14 23:35:00,
2013-01-14 23:50:00,34.7,33.0,29.61,NNE,25,2.0,9.0,93,0.00,,,0.00,weatherlink.com 1.10,2013-01-14 23:50:00,